TimeEST,TemperatureF,Dew PointF,Humidity,Sea Level PressureIn,VisibilityMPH,Wind Direction,Wind SpeedMPH,Gust SpeedMPH,PrecipitationIn,Events,Conditions,WindDirDegrees,DateUTC
12:05 AM,6.8,1.4,79,30.28,7.0,Calm,Calm,-,0.00,Snow,Light Snow,0,2013-01-23 05:05:00
12:24 AM,6.8,-0.4,72,30.28,10.0,Calm,Calm,-,0.00,,Overcast,0,2013-01-23 05:24:00
12:55 AM,7.0,1.9,80,30.32,2.5,Calm,Calm,-,0.00,Snow,Light Snow,0,2013-01-23 05:55:00
1:03 AM,6.8,1.4,79,30.27,1.2,Calm,Calm,-,0.00,Snow,Light Snow,0,2013-01-23 06:03:00
1:25 AM,6.8,1.4,79,30.26,2.0,East,4.6,-,0.00,Snow,Light Snow,100,2013-01-23 06:25:00
1:35 AM,6.8,1.4,79,30.26,3.0,ESE,3.5,-,0.00,Snow,Light Snow,120,2013-01-23 06:35:00
1:46 AM,6.8,1.4,79,30.26,1.8,ESE,4.6,-,0.00,Snow,Light Snow,120,2013-01-23 06:46:00
1:55 AM,6.1,1.0,80,30.31,1.2,ESE,5.8,-,0.00,Snow,Light Snow,120,2013-01-23 06:55:00
2:17 AM,6.8,1.4,79,30.25,3.0,SE,6.9,-,0.00,Snow,Light Snow,130,2013-01-23 07:17:00
2:35 AM,6.8,1.4,79,30.26,2.5,SE,4.6,-,0.00,Snow,Light Snow,130,2013-01-23 07:35:00
2:43 AM,6.8,1.4,79,30.26,1.0,SE,3.5,-,0.00,Snow,Light Snow,140,2013-01-23 07:43:00
2:55 AM,7.0,1.9,80,30.31,1.0,SE,4.6,-,0.00,Snow,Light Snow,130,2013-01-23 07:55:00
3:09 AM,6.8,1.4,79,30.26,2.0,SE,5.8,-,0.00,Snow,Light Snow,140,2013-01-23 08:09:00
3:19 AM,6.8,1.4,79,30.27,1.5,SSE,4.6,-,0.00,Snow,Light Snow,150,2013-01-23 08:19:00
3:52 AM,6.8,1.4,79,30.25,2.0,SE,6.9,-,0.00,Snow,Light Snow,140,2013-01-23 08:52:00
3:53 AM,7.0,1.9,80,30.30,2.0,SE,6.9,-,0.00,Snow,Light Snow,130,2013-01-23 08:53:00
4:11 AM,6.8,1.4,79,30.25,4.0,SE,5.8,-,0.00,Snow,Light Snow,130,2013-01-23 09:11:00
4:19 AM,6.8,1.4,79,30.25,1.8,SE,4.6,-,0.00,Snow,Light Snow,140,2013-01-23 09:19:00
4:26 AM,6.8,1.4,79,30.25,1.0,SE,5.8,-,0.00,Snow,Light Snow,130,2013-01-23 09:26:00
4:34 AM,6.8,1.4,79,30.24,0.8,SE,5.8,-,0.00,Snow,Light Snow,140,2013-01-23 09:34:00
4:46 AM,6.8,1.4,79,30.24,1.5,ESE,4.6,-,0.00,Snow,Light Snow,120,2013-01-23 09:46:00
4:52 AM,6.8,1.4,79,30.24,3.0,ESE,4.6,-,0.00,Snow,Light Snow,120,2013-01-23 09:52:00
4:55 AM,7.0,1.9,80,30.28,3.0,SE,5.8,-,0.00,Snow,Light Snow,130,2013-01-23 09:55:00
5:02 AM,6.8,1.4,79,30.23,2.5,SE,4.6,-,0.00,Snow,Light Snow,130,2013-01-23 10:02:00
5:23 AM,6.8,1.4,79,30.23,5.0,SE,5.8,-,0.00,Snow,Light Snow,140,2013-01-23 10:23:00
5:35 AM,6.8,1.4,79,30.23,2.0,SE,5.8,-,0.00,Snow,Light Snow,140,2013-01-23 10:35:00
5:45 AM,6.8,1.4,79,30.23,2.0,SE,5.8,-,0.00,Snow,Light Snow,130,2013-01-23 10:45:00
5:53 AM,6.8,1.4,79,30.22,3.0,SE,4.6,-,0.00,Snow,Light Snow,140,2013-01-23 10:53:00
5:55 AM,7.0,1.9,80,30.27,3.0,SSE,4.6,-,0.00,Snow,Light Snow,150,2013-01-23 10:55:00
6:05 AM,6.8,3.2,85,30.22,1.5,SSE,4.6,-,0.00,Snow,Light Snow,150,2013-01-23 11:05:00
6:34 AM,8.6,3.2,79,30.22,3.0,SE,8.1,-,0.00,Snow,Light Snow,130,2013-01-23 11:34:00
6:47 AM,8.6,3.2,79,30.21,1.8,SE,10.4,-,0.00,Snow,Light Snow,140,2013-01-23 11:47:00
6:53 AM,8.6,3.2,79,30.21,2.0,SE,10.4,-,0.00,Snow,Light Snow,130,2013-01-23 11:53:00
6:55 AM,8.1,3.0,80,30.26,2.5,SE,10.4,-,0.00,Snow,Light Snow,130,2013-01-23 11:55:00
7:10 AM,8.6,3.2,79,30.21,1.2,SE,8.1,-,0.00,Snow,Light Snow,130,2013-01-23 12:10:00
7:30 AM,8.6,3.2,79,30.20,0.8,SE,6.9,-,0.00,Snow,Light Snow,130,2013-01-23 12:30:00
7:37 AM,8.6,3.2,79,30.20,1.5,SE,8.1,-,0.00,Snow,Light Snow,130,2013-01-23 12:37:00
7:43 AM,8.6,3.2,79,30.20,3.0,SE,9.2,-,0.00,Snow,Light Snow,130,2013-01-23 12:43:00
7:55 AM,8.1,3.0,80,30.24,3.0,ESE,8.1,-,0.00,Snow,Light Snow,120,2013-01-23 12:55:00
8:34 AM,8.6,3.2,79,30.19,4.0,East,3.5,-,0.00,Snow,Light Snow,80,2013-01-23 13:34:00
8:50 AM,8.6,3.2,79,30.19,9.0,ENE,4.6,-,0.00,Snow,Light Snow,70,2013-01-23 13:50:00
8:55 AM,10.0,3.9,76,30.24,3.0,East,4.6,-,0.00,Snow,Light Snow,80,2013-01-23 13:55:00
9:04 AM,8.6,5.0,85,30.19,1.8,East,5.8,-,0.00,Snow,Light Snow,100,2013-01-23 14:04:00
9:30 AM,10.4,5.0,79,30.19,0.8,ENE,5.8,-,0.00,Snow,Light Snow,70,2013-01-23 14:30:00
9:55 AM,10.9,6.1,81,30.23,0.8,East,4.6,-,0.00,Snow,Light Snow,80,2013-01-23 14:55:00
10:13 AM,12.2,6.8,79,30.18,1.2,Calm,Calm,-,0.00,Snow,Light Snow,0,2013-01-23 15:13:00
10:47 AM,15.8,8.6,73,30.18,2.0,West,6.9,-,0.00,Snow,Light Snow,280,2013-01-23 15:47:00
10:55 AM,16.0,7.0,68,30.22,2.0,WNW,12.7,-,0.00,Snow,Light Snow,290,2013-01-23 15:55:00
11:17 AM,15.8,8.6,73,30.18,1.2,West,11.5,-,0.00,Snow,Light Snow,270,2013-01-23 16:17:00
11:30 AM,17.6,8.6,68,30.17,2.0,West,12.7,20.7,0.00,Snow,Light Snow,270,2013-01-23 16:30:00
11:44 AM,17.6,8.6,68,30.17,1.5,WNW,13.8,-,0.00,Snow,Light Snow,290,2013-01-23 16:44:00
11:55 AM,17.1,8.1,68,30.21,2.0,West,11.5,-,0.00,Snow,Light Snow,280,2013-01-23 16:55:00
12:55 PM,17.1,9.0,71,30.17,1.2,West,12.7,-,0.00,Snow,Light Snow,270,2013-01-23 17:55:00
1:23 PM,17.6,10.4,73,30.12,0.5,West,9.2,-,0.00,Snow,Light Snow,280,2013-01-23 18:23:00
1:33 PM,17.6,10.4,73,30.11,0.5,West,6.9,-,0.01,Snow,Light Snow,280,2013-01-23 18:33:00
1:47 PM,17.6,10.4,73,30.10,0.5,West,9.2,-,0.01,Snow,Snow,270,2013-01-23 18:47:00
1:51 PM,17.6,12.2,79,30.10,0.2,West,9.2,-,0.01,Snow,Heavy Snow,270,2013-01-23 18:51:00
1:55 PM,17.1,12.0,81,30.14,0.2,West,6.9,-,0.01,Snow,Heavy Snow,270,2013-01-23 18:55:00
2:10 PM,17.6,12.2,79,30.09,0.5,West,8.1,-,0.01,Snow,Light Snow,280,2013-01-23 19:10:00
2:27 PM,19.4,10.4,68,30.08,0.5,West,11.5,-,0.02,Snow,Light Snow,280,2013-01-23 19:27:00
2:55 PM,19.0,10.9,71,30.11,1.5,WSW,10.4,-,0.02,Snow,Light Snow,250,2013-01-23 19:55:00
3:29 PM,19.4,10.4,68,30.06,0.8,West,10.4,-,0.00,Snow,Light Snow,260,2013-01-23 20:29:00
3:46 PM,19.4,10.4,68,30.06,1.5,West,10.4,-,0.01,Snow,Light Snow,280,2013-01-23 20:46:00
3:52 PM,17.6,12.2,79,30.06,0.8,West,10.4,-,0.01,Snow,Light Snow,260,2013-01-23 20:52:00
3:55 PM,18.0,12.0,78,30.10,0.8,West,9.2,-,0.01,Snow,Light Snow,260,2013-01-23 20:55:00
4:00 PM,19.4,12.2,74,30.05,1.0,West,9.2,-,0.00,Snow,Light Snow,260,2013-01-23 21:00:00
4:47 PM,19.4,12.2,74,30.05,0.5,WNW,8.1,-,0.00,Snow,Light Snow,290,2013-01-23 21:47:00
4:55 PM,19.0,12.0,74,30.09,1.0,WNW,6.9,-,0.00,Snow,Light Snow,290,2013-01-23 21:55:00
5:15 PM,19.4,12.2,74,30.05,0.5,WNW,8.1,16.1,0.00,Snow,Light Snow,290,2013-01-23 22:15:00
5:24 PM,19.4,12.2,74,30.05,1.5,WNW,3.5,-,0.01,Snow,Light Snow,290,2013-01-23 22:24:00
5:41 PM,19.4,12.2,74,30.05,0.2,WNW,9.2,-,0.01,Snow,Heavy Snow,290,2013-01-23 22:41:00
5:50 PM,19.4,14.0,80,30.05,0.8,WNW,6.9,-,0.02,Snow,Light Snow,290,2013-01-23 22:50:00
5:55 PM,19.0,14.0,81,30.09,0.8,WNW,5.8,-,0.02,Snow,Light Snow,290,2013-01-23 22:55:00
6:02 PM,19.4,14.0,80,30.05,1.0,NW,10.4,-,0.00,Snow,Light Snow,310,2013-01-23 23:02:00
6:06 PM,19.4,12.2,74,30.05,1.0,NW,6.9,-,0.00,Snow,Light Snow,310,2013-01-23 23:06:00
6:32 PM,19.4,14.0,80,30.05,0.5,NW,8.1,-,0.01,Snow,Snow,320,2013-01-23 23:32:00
6:52 PM,19.4,14.0,80,30.05,0.5,NNW,10.4,-,0.02,Snow,Snow,340,2013-01-23 23:52:00
6:55 PM,19.0,14.0,81,30.09,0.5,NNW,9.2,-,0.02,Snow,Snow,330,2013-01-23 23:55:00
7:00 PM,19.4,14.0,80,30.05,1.0,NNW,8.1,-,0.00,Snow,Light Snow,330,2013-01-24 00:00:00
7:14 PM,19.4,12.2,74,30.05,3.0,NW,8.1,-,0.00,Snow,Light Snow,320,2013-01-24 00:14:00
7:23 PM,19.4,12.2,74,30.05,0.8,NW,12.7,19.6,0.00,Snow,Light Snow,310,2013-01-24 00:23:00
7:55 PM,18.0,12.0,78,30.11,0.8,NNW,16.1,21.9,0.00,Snow,Light Snow,330,2013-01-24 00:55:00
8:04 PM,17.6,12.2,79,30.07,0.8,NNW,11.5,-,0.00,Snow,Light Snow,340,2013-01-24 01:04:00
8:38 PM,17.6,10.4,73,30.09,0.8,North,18.4,-,0.01,Snow,Light Snow,350,2013-01-24 01:38:00
8:55 PM,16.0,10.9,81,30.14,0.8,NNW,17.3,26.5,0.01,Snow,Light Snow,330,2013-01-24 01:55:00
9:12 PM,15.8,10.4,79,30.12,0.5,NNW,23.0,27.6,0.00,Snow,Snow,340,2013-01-24 02:12:00
9:32 PM,15.8,10.4,79,30.13,0.5,NNW,17.3,26.5,0.00,Snow,Snow,340,2013-01-24 02:32:00
9:38 PM,15.8,10.4,79,30.14,0.8,NNW,17.3,-,0.00,Snow,Light Snow,340,2013-01-24 02:38:00
9:55 PM,15.1,10.0,80,30.18,0.8,North,18.4,24.2,0.00,Snow,Light Snow,350,2013-01-24 02:55:00
10:14 PM,15.8,10.4,79,30.15,2.5,NNW,12.7,-,0.00,Snow,Light Snow,340,2013-01-24 03:14:00
10:21 PM,15.8,8.6,73,30.15,3.0,NNW,12.7,-,0.00,Snow,Light Snow,340,2013-01-24 03:21:00
10:27 PM,15.8,8.6,73,30.16,2.0,North,17.3,-,0.00,Snow,Light Snow,350,2013-01-24 03:27:00
10:35 PM,15.8,8.6,73,30.17,3.0,North,12.7,-,0.00,Snow,Light Snow,350,2013-01-24 03:35:00
10:39 PM,15.8,10.4,79,30.17,1.8,North,13.8,-,0.00,Snow,Light Snow,350,2013-01-24 03:39:00
10:45 PM,15.8,10.4,79,30.18,0.5,North,11.5,19.6,0.00,Snow,Snow,360,2013-01-24 03:45:00
10:53 PM,15.8,10.4,79,30.18,0.2,North,17.3,24.2,0.00,Snow,Heavy Snow,350,2013-01-24 03:53:00
10:55 PM,15.1,10.0,80,30.22,0.2,North,16.1,24.2,0.00,Snow,Heavy Snow,350,2013-01-24 03:55:00
11:02 PM,15.8,10.4,79,30.18,1.0,NNW,15.0,-,0.00,Snow,Light Snow,340,2013-01-24 04:02:00
11:12 PM,15.8,8.6,73,30.19,1.8,North,11.5,-,0.00,Snow,Light Snow,350,2013-01-24 04:12:00
11:15 PM,15.8,8.6,73,30.19,3.0,North,9.2,18.4,0.00,Snow,Light Snow,360,2013-01-24 04:15:00
11:31 PM,14.0,8.6,79,30.19,8.0,NNW,12.7,23.0,0.00,Snow,Light Snow,340,2013-01-24 04:31:00
11:55 PM,14.0,8.1,77,30.25,4.0,NNW,11.5,-,0.00,Snow,Light Snow,340,2013-01-24 04:55:00